カタログに戻る

STARLINK-11122

運用中通信VLEO
NORAD 60040·PAYLOAD·🇺🇸 United States

打ち上げ Jun 8, 2024 から Vandenberg Space Force Base

Loading…

次のパス (今後24時間)

TLE

最新Source: CelesTrak SupGP

元期: Sep 14, 2026, 20:50 UTC

1 60040C 24112C   26257.86854167  .00055963  00000+0  46106-3 0  2571
2 60040  53.1571  53.9029 0001139  82.0662 175.0436 15.69677522    17

AllMySatでSTARLINK-11122をリアルタイム追跡

Download on the App Store